Weather in Ica

Peru     14°04′27″S   75°44′18″W
temp.,
°C
wind,
m/s
gust,
m/s
humid.,
%
clouds,
%
prec.,
mm/h
press.,
hPa
HPBL,
m
20 january, thu
thu2001:00+22wsw1172100 0.0 1012385
04:00+21ssw1176100 0.0 1011325
07:00+21sw117662 0.0 1012478
10:00+24wsw116378 0.0 10121091
13:00+26nw225458 0.0 10101252
16:00+29wnw6443100 0.0 10081551
19:00+24w3363100 0.0 1011928
22:00+21s117594 0.0 1013538
21 january, fri
fri2101:00+21sse1179100 0.0 1012535
04:00+21ssw117852 0.0 1010435
07:00+20wnw118083 0.1 1012411
10:00+22w117374 0.1 1012660
13:00+26wsw325680 0.1 10101305
16:00+24nw436366 0.0 1009809
19:00+22nw556935 0.0 1011534
22:00+21wnw227874 0.0 1013380
22 january, sat
sat2201:00+20wnw117977 0.0 1012403
04:00+20w108072 0.0 1011348
07:00+20wsw117941 0.1 1013391
10:00+25wsw215823 0.0 10121065
13:00+30wnw54391 0.0 10101824
16:00+28wnw85466 0.0 10091408
19:00+23wnw556563 0.0 1012759
22:00+22wnw327373 0.0 1014523
23 january, sun
sun2301:00+20wsw118099 0.0 1012309
04:00+20w118411 0.0 1012147
07:00+20sw1181100 0.0 1013231
10:00+25sw215832 0.0 1012952
13:00+31wnw54376 0.0 10091916
16:00+28wnw864711 0.0 10101358
19:00+24wnw546350 0.1 1012690
22:00+21wnw227313 0.0 1013395
24 january, mon
mon2401:00+20w11805 0.0 1011216
04:00+20sw11835 0.0 1011154
07:00+20ssw11805 0.0 1012258
10:00+25sw11597 0.0 1011974
13:00+31wnw42386 0.0 10081997
16:00+29wnw854350 0.0 10071560
19:00+24wnw435855 0.1 1010679
22:00+21wnw21739 0.0 1012376